Location: ?????
(55.6500°N, 37.2500°E)
Time: 11:37:39
(UTC+00:00)

NOSS 3-1 (C) - Pass Details

Date: 19 May 2025
Orbit: 632 x 1571 km, 63.4° (Epoch: 02 June)

Event Time Altitude Azimuth Distance (km) Brightness Sun altitude
Rises 20:20:56 0° 238° (WSW) 3,078 6.0 -13.1°
Reaches altitude 10° 20:23:05 10° 240° (WSW) 2,239 5.3 -13.2°
Maximum altitude 20:28:10 75° 326° (NW) 878 3.4 -13.3°
Drops below altitude 10° 20:34:35 10° 53° (NE) 2,796 6.2 -13.6°
Sets 20:37:32 0° 55° (NE) 3,906 7.0 -13.6°
